Meath Environmental Platform

Observations

Time Sensor AQI SAQ Temp °C Hum % Pres Pa CO μg/m³ H₂S μg/m³ NO μg/m³ NO₂ μg/m³ O₃ μg/m³ SO₂ μg/m³ CO₂e PPM VOC PPM PM1 μg/m³ PM2.5 μg/m³ PM4 μg/m³ PM10 μg/m³ TPS µm
Wednesday 12 August 2026
16:34 Trim Market St 3 39 27 67,031 0 7.89 0 26.2 70.39 2.38 2.14 5.09 5.6
16:34 Trim Patrick St 3 37.6 30 69,756 0 16.8 0 13.46 149.25 27.22 3.71 10.06 11.06
16:33 Trim Market St 3 39.1 27 67,041 0 12 0 45.56 55.08 2.58 1.43 5.1 5.75
16:33 Trim Patrick St 3 37.7 30 69,760 0 4.19 0 13 137.14 25.55 4.57 10.92 12.01
16:32 Trim Patrick St 3 37.7 30 69,766 0 0 0 12.96 114.79 25.27 5.43 11.72 12.89
16:31 Trim Market St 3 39.4 26 67,065 0 3.17 0 27.36 75.86 3.18 1.43 4.57 5.02
16:31 Trim Patrick St 3 37.8 30 69,772 0 5.1 0 13.01 133.43 26.87 7.14 13.31 14.64
16:30 Trim Market St 3 39.4 26 67,076 0 0 0 13.45 99.29 4.62 1.43 4.57 5.02
16:30 Trim Patrick St 3 37.8 30 69,780 0 0 0 13 122.89 24.85 3.71 9.29 10.21
16:29 Trim Patrick St 3 37.8 31 69,764 0 8.65 0 13.03 83.92 25.86 4.57 11.65 12.82
16:28 Trim Patrick St 3 37.8 30 69,766 0 20.05 0 14.87 133.9 26.06 3.71 10.88 11.96
16:27 Trim Patrick St 3 37.8 30 69,772 0 12.2 0 13.93 150.87 25.87 3.71 9.27 10.2
16:26 Trim Patrick St 3 37.8 31 69,772 0 3.5 0 13.02 116.59 24.9 2.86 10.05 11.05
16:25 Trim Patrick St 3 37.8 30 69,778 0 15.01 0 13.01 150.95 26.82 3.71 10.08 11.09
16:24 Trim Market St 3 39.9 26 67,143 0 0 0 15.01 78.34 2.94 2.14 5.15 5.74
16:24 Trim Patrick St 3 37.9 30 69,756 0 6.58 0 13.57 169.18 25.93 2 8.51 9.36
16:23 Trim Market St 3 40.1 26 67,143 0 0 0 14.22 93.37 4.49 2.14 5.15 5.74
16:23 Trim Patrick St 3 38 30 69,760 0 0 0 12.59 110.67 25.62 3.71 10.12 11.13
16:22 Trim Patrick St 3 38 30 69,772 0 0 0 13.07 167.45 25.67 3.71 10.1 11.11
16:21 Trim Patrick St 3 38.1 30 69,782 0 0 0 11.8 78.14 25.46 4.57 10.92 12.01